User: anonymous   Login
Location: Oshawa
(43.9000°N, 78.8670°W)
Time: 03:20:56
(UTC-04:00)
Language:

Cosmos 1821 Rocket - Orbit

View from above orbital plane
View from above orbital plane
View from above satellite
View from above satellite

Ground track
Ground track

The orbit data is extracted from the following two-line orbital elements,

1 17526U 87017B   17083.66759523 -.00000065 +00000-0 -81614-4 0  9993
2 17526 082.8989 103.3975 0040015 191.5410 168.4833 13.76805883494465
Epoch (UTC): 24 March 2017 16:01:20
Eccentricity: 0.0040015
inclination: 82.8989°
perigee height: 946 km
apogee height: 1004 km
right ascension of ascending node: 103.3975°
argument of perigee: 191.5410°
revolutions per day: 13.76805883
mean anomaly at epoch: 168.4833°
orbit number at epoch: 49446

The dashed part of the orbit path shows where the satellite is in the earth's shadow,  

DLR